Terminal Aerodrome Forecast
Issued by NWS Duluth, MN

Home | Current Version | Previous Version | Text Only | Print | Product List | Glossary On
Versions: 1 2 3 4 5 6 7 8 9 10 11 12 13 14 15 16 17 18 19 20 21 22 23 24 25
000
FTUS43 KDLH 181700
TAFINL
TAF
KINL 181728Z 1818/1918 10010G18KT P6SM SKC
     FM181900 11011G20KT P6SM BKN100
     FM190500 12012KT 2SM -SN OVC020
      TEMPO 1908/1912 1/2SM -SN FG OVC004
     FM191200 12013KT 2SM -FZRASN OVC010
     FM191600 10015G25KT 3SM -RA OVC006=

USA.gov is the U.S. government's official web portal to all federal, state and local government web resources and services.